Location: Unspecified
(0.0000°N, 0.0000°E)
Time: 05:31:09
(UTC+02:00)

USA 116 - Visible Passes

Search period start: 01 June 2016 00:00
Search period end: 11 June 2016 00:00
Orbit: 405 x 834 km, 97.9° (Epoch: 18 November)

Date Brightness Start Highest point End Pass type
(mag) Time Alt. Az. Time Alt. Az. Time Alt. Az.
01 Jun 4.6 07:04:05 10° S 07:09:10 55° WSW 07:14:26 10° NNW visible
02 Jun 7.4 05:44:41 10° ESE 05:47:42 15° ENE 05:50:43 10° NE visible
02 Jun 5.0 07:18:23 10° SSW 07:23:12 37° WSW 07:28:07 10° NW visible
03 Jun 6.8 05:57:35 10° SE 06:01:41 23° ENE 06:05:47 10° NNE visible
04 Jun 6.2 06:10:55 10° SE 06:15:40 33° ENE 06:20:25 10° NNE visible
05 Jun 5.5 06:24:31 10° SSE 06:29:40 49° ENE 06:34:48 10° N visible
06 Jun 4.7 06:38:20 10° SSE 06:43:40 73° ENE 06:48:59 10° N visible
07 Jun 4.4 06:52:18 10° S 06:57:41 77° WSW 07:02:59 10° NNW visible
08 Jun 7.6 05:35:06 10° E 05:36:08 11° ENE 05:37:08 10° ENE visible
08 Jun 4.6 07:06:28 10° S 07:11:40 52° WSW 07:16:49 10° NNW visible
09 Jun 7.3 05:46:52 10° ESE 05:50:07 16° ENE 05:53:18 10° NE visible
09 Jun 5.1 07:20:48 10° SSW 07:25:40 35° WSW 07:30:27 10° NW visible
10 Jun 6.7 05:59:52 10° SE 06:04:07 24° ENE 06:08:15 10° NNE visible
